Volver al catálogo

ATLAS 5 CENTAUR DEB

ActivoHEO
NORAD 44683·DEBRIS·🇺🇸 United States

Lanzado Oct 17, 2018 desde Cape Canaveral Space Force Station

Loading…

Próximos Pases (próximas 24 horas)

TLE

ActualizadoSource: Space-Track

Época: Sep 10, 2026, 18:16 UTC

1 44683U 18079AV  26253.76136644 -.00000201  00000-0  00000-0 0  9999
2 44683  13.4324  23.5343 4708058 339.7472   6.4210  1.83233341 52896

Sigue ATLAS 5 CENTAUR DEB en tiempo real con AllMySat

Download on the App Store